| time (UTC) | temp C | wind direction | speed KPH | gust KPH | rain 1hr cm | rain 24hr cm | rain mn cm | humidity % | barometer mb |
| 20260506070521 | 10 | 0.0 | 0.0 | 0.00 | 0.00 | 0.00 | 74 | 1015.3 | |
| 20260506061522 | 12 | 0.0 | 0.0 | 0.00 | 0.00 | 0.00 | 71 | 1015.1 | |
| 20260506060521 | 12 | 0.0 | 0.0 | 0.00 | 0.00 | 0.00 | 71 | 1014.9 | |
| 20260506050523 | 13 | 0.0 | 4.8 | 0.00 | 0.00 | 0.00 | 70 | 1014.6 | |
| 20260506044517 | 13 | 0 | 4.8 | 6.4 | 0.00 | 0.00 | 0.00 | 69 | 1014.6 |
| 20260506043524 | 13 | 248 | 6.4 | 9.7 | 0.00 | 0.00 | 0.00 | 69 | 1014.4 |
| 20260506042542 | 13 | 0 | 4.8 | 9.7 | 0.00 | 0.00 | 0.00 | 69 | 1014.3 |
| 20260506041523 | 13 | 0 | 6.4 | 11.3 | 0.00 | 0.00 | 0.00 | 68 | 1014.2 |
| 20260506040523 | 14 | 0 | 6.4 | 12.9 | 0.00 | 0.00 | 0.00 | 67 | 1014.0 |
| 20260506035525 | 14 | 0 | 6.4 | 9.7 | 0.00 | 0.00 | 0.00 | 66 | 1013.8 |
| 20260506034525 | 15 | 0 | 8.0 | 12.9 | 0.00 | 0.00 | 0.00 | 64 | 1013.9 |
| 20260506033522 | 15 | 0 | 8.0 | 11.3 | 0.00 | 0.00 | 0.00 | 62 | 1013.7 |
| 20260506032523 | 16 | 0 | 8.0 | 14.5 | 0.00 | 0.00 | 0.00 | 59 | 1013.8 |
| 20260506031523 | 16 | 0 | 9.7 | 17.7 | 0.00 | 0.00 | 0.00 | 57 | 1013.6 |
| 20260506030523 | 17 | 0 | 11.3 | 17.7 | 0.00 | 0.00 | 0.00 | 56 | 1013.8 |
| 20260506025524 | 17 | 0 | 8.0 | 16.1 | 0.00 | 0.00 | 0.00 | 53 | 1013.6 |
| 20260506024526 | 18 | 0 | 8.0 | 16.1 | 0.00 | 0.00 | 0.00 | 50 | 1013.7 |
| 20260506023520 | 18 | 0 | 16.1 | 24.1 | 0.00 | 0.00 | 0.00 | 47 | 1013.6 |
| 20260506022518 | 18 | 0 | 14.5 | 22.5 | 0.00 | 0.00 | 0.00 | 46 | 1013.5 |
| 20260506021525 | 19 | 0 | 12.9 | 24.1 | 0.00 | 0.00 | 0.00 | 44 | 1013.7 |
| 20260506020524 | 20 | 0 | 14.5 | 25.7 | 0.00 | 0.00 | 0.00 | 43 | 1013.7 |
| 20260506015522 | 20 | 0 | 14.5 | 25.7 | 0.00 | 0.00 | 0.00 | 41 | 1013.7 |
| 20260506014524 | 20 | 0 | 17.7 | 30.6 | 0.00 | 0.00 | 0.00 | 40 | 1013.9 |
| 20260506013525 | 20 | 0 | 19.3 | 30.6 | 0.00 | 0.00 | 0.00 | 38 | 1013.9 |
| 20260506012520 | 21 | 0 | 16.1 | 27.4 | 0.00 | 0.00 | 0.00 | 38 | 1013.8 |
| 20260506011542 | 21 | 0 | 17.7 | 27.4 | 0.00 | 0.00 | 0.00 | 37 | 1013.6 |
| 20260506010523 | 21 | 0 | 17.7 | 29.0 | 0.00 | 0.00 | 0.00 | 37 | 1013.8 |
| 20260506005522 | 21 | 0 | 17.7 | 29.0 | 0.00 | 0.00 | 0.00 | 37 | 1013.8 |
| 20260506004522 | 21 | 0 | 17.7 | 35.4 | 0.00 | 0.00 | 0.00 | 38 | 1013.7 |
| 20260506003522 | 22 | 0 | 20.9 | 33.8 | 0.00 | 0.00 | 0.00 | 36 | 1013.7 |
| 20260506002523 | 22 | 0 | 20.9 | 40.2 | 0.00 | 0.00 | 0.00 | 36 | 1013.6 |
| 20260506001519 | 22 | 0 | 20.9 | 32.2 | 0.00 | 0.00 | 0.00 | 36 | 1013.5 |
| 20260506000543 | 22 | 0 | 22.5 | 35.4 | 0.00 | 0.00 | 0.00 | 35 | 1013.8 |
| 20260505235524 | 22 | 0 | 20.9 | 35.4 | 0.00 | 0.00 | 0.00 | 36 | 1013.7 |
| 20260505234523 | 22 | 0 | 20.9 | 33.8 | 0.00 | 0.00 | 0.00 | 36 | 1013.8 |
| 20260505233527 | 22 | 0 | 20.9 | 35.4 | 0.00 | 0.00 | 0.00 | 37 | 1013.8 |
| 20260505232523 | 22 | 0 | 19.3 | 33.8 | 0.00 | 0.00 | 0.00 | 37 | 1013.5 |
| 20260505231523 | 22 | 0 | 19.3 | 32.2 | 0.00 | 0.00 | 0.00 | 37 | 1013.8 |
| 20260505230518 | 21 | 0 | 14.5 | 20.9 | 0.00 | 0.00 | 0.00 | 41 | 1013.3 |
| 20260505225524 | 21 | 0 | 14.5 | 22.5 | 0.00 | 0.00 | 0.00 | 39 | 1013.6 |
| 20260505224524 | 22 | 0 | 19.3 | 32.2 | 0.00 | 0.00 | 0.00 | 40 | 1013.7 |
| 20260505223524 | 23 | 0 | 14.5 | 27.4 | 0.00 | 0.00 | 0.00 | 38 | 1014.0 |
| 20260505222525 | 22 | 0 | 16.1 | 25.7 | 0.00 | 0.00 | 0.00 | 38 | 1013.8 |
| 20260505221524 | 22 | 0 | 14.5 | 22.5 | 0.00 | 0.00 | 0.00 | 37 | 1014.1 |
| 20260505220519 | 23 | 0 | 14.5 | 25.7 | 0.00 | 0.00 | 0.00 | 36 | 1014.5 |
| 20260505215518 | 23 | 0 | 12.9 | 24.1 | 0.00 | 0.00 | 0.00 | 36 | 1014.5 |
| 20260505214546 | 23 | 0 | 17.7 | 27.4 | 0.00 | 0.00 | 0.00 | 37 | 1014.2 |
| 20260505213523 | 22 | 0 | 14.5 | 22.5 | 0.00 | 0.00 | 0.00 | 37 | 1013.8 |
| 20260505212522 | 22 | 0 | 12.9 | 29.0 | 0.00 | 0.00 | 0.00 | 39 | 1014.3 |
| 20260505211523 | 22 | 0 | 14.5 | 25.7 | 0.00 | 0.00 | 0.00 | 38 | 1014.1 |
| 20260505210606 | 22 | 0 | 14.5 | 25.7 | 0.00 | 0.00 | 0.00 | 41 | 1014.0 |
| 20260505205521 | 21 | 0 | 14.5 | 27.4 | 0.00 | 0.00 | 0.00 | 42 | 1014.0 |
| 20260505204524 | 21 | 0 | 9.7 | 16.1 | 0.00 | 0.00 | 0.00 | 44 | 1013.8 |
| 20260505203522 | 21 | 0 | 11.3 | 17.7 | 0.00 | 0.00 | 0.00 | 42 | 1013.9 |
| 20260505202523 | 21 | 0 | 14.5 | 24.1 | 0.00 | 0.00 | 0.00 | 39 | 1014.0 |
| 20260505201523 | 22 | 0 | 14.5 | 24.1 | 0.00 | 0.00 | 0.00 | 38 | 1014.0 |
| 20260505200519 | 21 | 0 | 14.5 | 25.7 | 0.00 | 0.00 | 0.00 | 40 | 1014.2 |
| 20260505195523 | 21 | 0 | 12.9 | 17.7 | 0.00 | 0.00 | 0.00 | 38 | 1013.9 |
| 20260505194518 | 21 | 0 | 8.0 | 14.5 | 0.00 | 0.00 | 0.00 | 38 | 1014.3 |
| 20260505193543 | 21 | 0 | 3.2 | 11.3 | 0.00 | 0.00 | 0.00 | 38 | 1014.3 |
| 20260505192526 | 21 | 0 | 8.0 | 16.1 | 0.00 | 0.00 | 0.00 | 42 | 1014.1 |
| 20260505191524 | 20 | 0 | 8.0 | 20.9 | 0.00 | 0.00 | 0.00 | 44 | 1014.2 |
| 20260505190525 | 20 | 0 | 12.9 | 17.7 | 0.00 | 0.00 | 0.00 | 46 | 1013.8 |
| 20260505185524 | 20 | 0 | 11.3 | 20.9 | 0.00 | 0.00 | 0.00 | 49 | 1013.8 |
| 20260505184524 | 19 | 0 | 11.3 | 22.5 | 0.00 | 0.00 | 0.00 | 49 | 1013.9 |
| 20260505183518 | 18 | 0 | 14.5 | 22.5 | 0.00 | 0.00 | 0.00 | 54 | 1013.7 |
| 20260505182523 | 18 | 0 | 12.9 | 20.9 | 0.00 | 0.00 | 0.00 | 55 | 1013.8 |
| 20260505181523 | 17 | 0 | 12.9 | 17.7 | 0.00 | 0.00 | 0.00 | 52 | 1013.5 |
| 20260505180524 | 17 | 0 | 12.9 | 17.7 | 0.00 | 0.00 | 0.00 | 53 | 1013.5 |
| 20260505175522 | 17 | 0 | 8.0 | 14.5 | 0.00 | 0.00 | 0.00 | 53 | 1013.5 |
| 20260505174521 | 16 | 0 | 8.0 | 12.9 | 0.00 | 0.00 | 0.00 | 50 | 1013.1 |
| 20260505173517 | 16 | 0 | 9.7 | 16.1 | 0.00 | 0.00 | 0.00 | 50 | 1013.1 |
| 20260505172519 | 16 | 0 | 9.7 | 14.5 | 0.00 | 0.00 | 0.00 | 50 | 1013.1 |
| 20260505171523 | 15 | 0 | 11.3 | 16.1 | 0.00 | 0.00 | 0.00 | 52 | 1012.8 |
| 20260505170525 | 15 | 0 | 9.7 | 16.1 | 0.00 | 0.00 | 0.00 | 54 | 1012.8 |
| 20260505165525 | 15 | 0 | 11.3 | 16.1 | 0.00 | 0.00 | 0.00 | 57 | 1012.9 |
| 20260505164527 | 14 | 0 | 11.3 | 17.7 | 0.00 | 0.00 | 0.00 | 60 | 1012.6 |
| 20260505163524 | 13 | 0 | 12.9 | 17.7 | 0.00 | 0.00 | 0.00 | 62 | 1012.6 |
| 20260505162518 | 13 | 0 | 12.9 | 17.7 | 0.00 | 0.00 | 0.00 | 64 | 1012.3 |
| 20260505161523 | 13 | 0 | 12.9 | 17.7 | 0.00 | 0.00 | 0.00 | 66 | 1012.3 |
| 20260505160521 | 12 | 0 | 14.5 | 20.9 | 0.00 | 0.00 | 0.00 | 68 | 1012.3 |
| 20260505152524 | 11 | 338 | 1.6 | 8.0 | 0.00 | 0.00 | 0.00 | 75 | 1011.6 |
| 20260505151517 | 10 | 0 | 6.4 | 11.3 | 0.00 | 0.00 | 0.00 | 77 | 1011.6 |
| 20260505150542 | 10 | 0 | 1.6 | 9.7 | 0.00 | 0.00 | 0.00 | 82 | 1011.4 |
| 20260505140518 | 6 | 0 | 3.2 | 6.4 | 0.00 | 0.00 | 0.00 | 93 | 1010.2 |
| 20260505124524 | 6 | 0 | 1.6 | 6.4 | 0.00 | 0.00 | 0.00 | 90 | 1009.5 |
| 20260505123525 | 6 | 0 | 4.8 | 8.0 | 0.00 | 0.00 | 0.00 | 90 | 1009.3 |
| 20260505122526 | 6 | 338 | 1.6 | 6.4 | 0.00 | 0.00 | 0.00 | 89 | 1009.4 |
| 20260505121525 | 6 | 0.0 | 0.0 | 0.00 | 0.00 | 0.00 | 89 | 1009.3 | |
| 20260505120544 | 6 | 0.0 | 0.0 | 0.00 | 0.00 | 0.00 | 88 | 1009.2 | |
| 20260505115520 | 7 | 0.0 | 0.0 | 0.00 | 0.00 | 0.00 | 88 | 1009.5 | |
| 20260505114518 | 7 | 0.0 | 0.0 | 0.00 | 0.00 | 0.00 | 89 | 1009.3 | |
| 20260505113523 | 7 | 0.0 | 0.0 | 0.00 | 0.00 | 0.00 | 89 | 1009.3 | |
| 20260505112525 | 7 | 0.0 | 0.0 | 0.00 | 0.00 | 0.00 | 88 | 1009.2 | |
| 20260505111522 | 7 | 0.0 | 0.0 | 0.00 | 0.00 | 0.00 | 88 | 1009.2 | |
| 20260505110523 | 7 | 0.0 | 0.0 | 0.00 | 0.00 | 0.00 | 88 | 1009.1 | |
| 20260505101543 | 8 | 0 | 8.0 | 11.3 | 0.00 | 0.00 | 0.00 | 87 | 1009.2 |
| 20260505100524 | 8 | 0 | 6.4 | 9.7 | 0.00 | 0.00 | 0.00 | 87 | 1009.3 |
| 20260505095523 | 8 | 338 | 8.0 | 11.3 | 0.00 | 0.00 | 0.00 | 87 | 1009.4 |
| 20260505094523 | 8 | 338 | 6.4 | 11.3 | 0.00 | 0.00 | 0.00 | 87 | 1009.3 |
| 20260505093600 | 8 | 338 | 8.0 | 16.1 | 0.00 | 0.00 | 0.00 | 87 | 1009.4 |
| 20260505092517 | 8 | 338 | 8.0 | 11.3 | 0.00 | 0.00 | 0.00 | 87 | 1009.3 |
| 20260505091523 | 8 | 338 | 6.4 | 11.3 | 0.00 | 0.00 | 0.00 | 87 | 1009.3 |
| 20260505090524 | 8 | 0 | 4.8 | 8.0 | 0.00 | 0.00 | 0.00 | 86 | 1009.3 |
| 20260505085521 | 8 | 0 | 3.2 | 6.4 | 0.00 | 0.00 | 0.00 | 85 | 1009.2 |
| 20260505084522 | 8 | 0.0 | 0.0 | 0.00 | 0.00 | 0.00 | 85 | 1009.2 | |
| 20260505083543 | 8 | 0.0 | 0.0 | 0.00 | 0.00 | 0.00 | 84 | 1009.3 | |
| 20260505082518 | 9 | 0.0 | 0.0 | 0.00 | 0.00 | 0.00 | 84 | 1009.6 | |
| 20260505081538 | 9 | 0.0 | 4.8 | 0.00 | 0.00 | 0.00 | 84 | 1009.5 | |
| 20260505080522 | 9 | 0.0 | 0.0 | 0.00 | 0.00 | 0.00 | 83 | 1009.5 | |
| 20260505075523 | 10 | 0 | 3.2 | 6.4 | 0.00 | 0.00 | 0.00 | 83 | 1009.5 |
| 20260505074522 | 9 | 0 | 8.0 | 12.9 | 0.00 | 0.00 | 0.00 | 83 | 1009.3 |
| 20260505073523 | 10 | 0 | 9.7 | 12.9 | 0.00 | 0.00 | 0.00 | 82 | 1009.2 |
| 20260505072523 | 10 | 0 | 6.4 | 9.7 | 0.00 | 0.00 | 0.00 | 79 | 1009.6 |
| 20260505071540 | 11 | 0 | 6.4 | 12.9 | 0.00 | 0.00 | 0.00 | 79 | 1009.5 |